Content
SEND FEEDBACK

Daily
Averages
Monthly
Summary
United States of America

COLLINSVILLE, MISSISSIPPI


Home > North America > United States > Mississippi
Elevation: 10 meters     Latitude: 32 25N     Longitude: 088 46W

WEATHER
 
SELECT A DAY
Number of Records: 215,332;   Date Range: 1/1/95 - 9/21/14
 
SHARE

PRINT THIS DATA

[ ← Previous Day ]
WEATHER ALMANAC - 13 FEBRUARY, 2013
[ Next Day → ]
[ °F ]   °C
Weather ElementAverageHighLow
Temperature8.4 °C11 °C (2:33 am)2.8 °C (10:58 pm)
Dewpoint5.9 °C9.4 °C (1:58 am)2.2 °C (10:58 pm)
Humidity85.3 %100 % (12:39 am)64 % (2:58 pm)
Barometer1013.2 hPa1018.6 hPa (11:58 pm)1008.8 hPa (12:39 am)
Wind Speed12.9 km/h25.9 km/h (6:28 am)
Wind Gust35.2 km/h (6:58 am)
Weather ElementAverage
Visibility15.6 km
Wind DirectionWSW (243.9 °)

Weather ElementTotal
Precipitation---
Heating Degree Days11.4 (Base 18.3)
Averaged from 33 records on 13 February, 2013
WEATHER CONDITIONS BREAKOUT
WIND DIRECTION BREAKOUT
WEATHER BY HOUR - 13 FEBRUARY, 2013
[ °F ]   °C
Local TimeTemperatureDewpointHumidityBarometerVisibilityWind DirectionWind SpeedGust SpeedPrecipitationEventsConditions
12:39 AM9 °C9 °C100 %1008.8 hPa16.1 kmSSW (210°)7.4 km/hOvercast
12:47 AM9 °C9 °C100 %1008.8 hPa16.1 kmSW (220°)7.4 km/hOvercast
12:58 AM9.4 °C8.9 °C97 %1009.1 hPa16.1 kmSSW (210°)7.4 km/hOvercast
1:58 AM10 °C9.4 °C96 %1008.8 hPa16.1 kmWSW (240°)13 km/hOvercast
2:33 AM11 °C9 °C88 %1009.1 hPa16.1 kmWSW (250°)13 km/hOvercast
2:56 AM10 °C9 °C94 %1009.5 hPa16.1 kmWSW (250°)14.8 km/hMostly Cloudy
2:58 AM10 °C9.4 °C96 %1009.5 hPa16.1 kmWSW (250°)13 km/hMostly Cloudy
3:15 AM10 °C9 °C94 %1009.8 hPa16.1 kmWSW (250°)16.7 km/h25.9 km/hScattered Clouds
3:58 AM10 °C8.9 °C93 %1010.2 hPa16.1 kmWSW (250°)16.7 km/hScattered Clouds
4:06 AM10 °C9 °C94 %1010.2 hPa16.1 kmWSW (250°)16.7 km/hMostly Cloudy
4:58 AM10 °C7.8 °C86 %1011.2 hPa16.1 kmWest (260°)18.5 km/h29.6 km/hMostly Cloudy
5:58 AM9.4 °C7.2 °C86 %1011.5 hPa16.1 kmWest (280°)22.2 km/hOvercast
6:28 AM9 °C7 °C87 %1011.2 hPa16.1 kmWNW (290°)25.9 km/h31.5 km/hOvercast
6:58 AM8.3 °C6.7 °C90 %1012.9 hPa16.1 kmWNW (290°)20.4 km/h35.2 km/hOvercast
7:34 AM8 °C6 °C87 %1013.2 hPa16.1 kmWNW (290°)18.5 km/hOvercast
7:58 AM8.3 °C5.6 °C83 %1013.5 hPa16.1 kmWest (270°)9.3 km/hOvercast
8:58 AM8.3 °C5.6 °C83 %1014.6 hPa16.1 kmWest (270°)11.1 km/h27.8 km/hOvercast
9:58 AM8.3 °C5 °C80 %1014.9 hPa16.1 kmWNW (290°)13 km/h31.5 km/hOvercast
10:58 AM8.9 °C5 °C77 %1015.2 hPa16.1 kmWNW (290°)11.1 km/hOvercast
11:58 AM8.9 °C4.4 °C74 %1014.2 hPa16.1 kmWNW (290°)13 km/hOvercast
12:58 PM10 °C4.4 °C68 %1014.2 hPa16.1 kmWNW (300°)14.8 km/hOvercast
1:39 PM9 °C4 °C71 %1014.6 hPa16.1 kmNW (320°)25.9 km/h35.2 km/hOvercast
1:58 PM10 °C4.4 °C68 %1014.2 hPa16.1 kmNNW (340°)24.1 km/h35.2 km/hOvercast
2:58 PM9.4 °C2.8 °C64 %1015.2 hPa16.1 kmNW (320°)16.7 km/hOvercast
3:58 PM8.9 °C3.9 °C71 %1015.6 hPa16.1 kmNW (310°)16.7 km/hOvercast
4:58 PM8.3 °C3.3 °C71 %1015.9 hPa16.1 kmNW (320°)14.8 km/hOvercast
5:58 PM7.8 °C3.3 °C73 %1016.6 hPa16.1 kmWNW (300°)7.4 km/hOvercast
6:58 PM7.2 °C4.4 °C82 %1017.3 hPa16.1 kmCalmOvercast
7:58 PM6.7 °C3.9 °C82 %1017.6 hPa16.1 kmNNW (330°)7.4 km/hOvercast
8:58 PM5 °C3.9 °C93 %1017.9 hPa16.1 kmNW (310°)5.6 km/hClear
9:58 PM3.9 °C3.3 °C96 %1018.3 hPa11.3 kmCalmClear
10:58 PM2.8 °C2.2 °C96 %1018.3 hPa8 kmCalmClear
11:58 PM2.8 °C2.2 °C96 %1018.6 hPa12.9 kmCalmClear
Hourly data recorded from KMEI, located 0 kilometers away from Collinsville, Mississippi







STORIES FROM OUR PARTNERS